Epoch 2007 Aug. 8.0 TT = JDT 2454320.5
T 2007 Aug. 15.33083 TT MPC
q 1.8292688 (2000.0) P Q
n 0.15043264 Peri. 350.14956 -0.26267165 +0.86701667
a 3.5013969 Node 263.65744 -0.85374429 -0.41331218
e 0.4775603 Incl. 25.21582 -0.44958236 +0.27830765
P 6.55
From 80 observations 2001 June 30-2014 Jan. 7, mean residual 0".6.